テンペル第2彗星

10P/Tempel 2 (2021)

English version
Home page
Updated on March 7, 2023

---------------------------------------------------------------------

・ プロフィール

・ 写真集

・ 軌道要素

Epoch 2023 Feb. 25.0 TT = JDT 2460000.5
T 2021 Mar. 24.07633 TT                                 Rudenko
q   1.4141406            (2000.0)            P               Q
n   0.18398021     Peri.  195.52520     +0.68112149     +0.70856208
a   3.0616483      Node   117.81473     -0.64759765     +0.70054170
e   0.5381114      Incl.   12.03558     -0.34160035     +0.08474142
P   5.36
>From 4519 observations 2003 Mar. 7-2023 Jan. 20, mean residual 0".6.
     Nongravitational parameters A1 = +0.02, A2 = +0.0006.

・ 星図

・ 光度変化

        H = 13.6  G = 0.15              [    ,-155]  (              〜2020年10月20日)
        m1 =  4.6 + 5 logΔ + 35 log r  [-155,   0]  (2020年10月20日〜2021年 3月24日)
        m1 =  7.2 + 5 logΔ + 18 log r  [   0, 405]  (2021年 3月24日〜2022年 5月 3日)
        H = 13.6  G = 0.15              [ 405,    ]  (2022年 5月 3日〜              )

---------------------------------------------------------------------

軌道要素はM.P.E.C. 2023-B57に掲載されたものです。
星図はステラナビゲータ Ver.10 (アストロアーツ) で作成したものです。
光度グラフはComet for Windowsで作成したものです。

---------------------------------------------------------------------

Copyright(C) Seiichi Yoshida (comet@aerith.net). All rights reserved.